Regional Weather Roundup
Issued by NWS Little Rock, AR

Home | Current Version | Previous Version | Graphics & Text | Print | Product List | Glossary On
Versions: 1 2 3 4 5 6 7 8 9 10 11 12 13 14 15 16 17 18 19 20 21 22 23 24 25 26 27 28 29 30 31 32 33 34 35 36 37 38 39 40 41 42 43 44 45 46 47 48 49 50
763
ASUS44 KLZK 231105
RWRLZK

WEATHER ROUNDUP FOR ARKANSAS
NATIONAL WEATHER SERVICE LITTLE ROCK AR
600 AM CDT MON OCT 23 2017

NOTE: "FAIR" INDICATES FEW OR NO CLOUDS BELOW 12,000 FEET WITH NO
SIGNIFICANT WEATHER AND/OR OBSTRUCTIONS TO VISIBILITY.

ARZ001-003-010-029-231200-
NORTHWEST ARKANSAS

CITY           SKY/WX    TMP DP  RH WIND       PRES   REMARKS
FAYETTEVILLE   CLEAR     37  37 100 S5        30.06S
FORT SMITH     CLEAR     45  44  97 W5        30.06F
HARRISON       CLEAR     46  41  82 W8        30.02R
BENTONVILLE    CLEAR     40  39  97 S3        30.07S
ROGERS         CLEAR     42  41  96 S5        30.06S
SILOAM SPGS    CLEAR     40  39  97 CALM      30.06S
HIGHFILL       CLEAR     40  40 100 S5        30.06R
SPRINGDALE     CLEAR     39  39 100 CALM      30.07
$$

ARZ004-005-016-231200-
NORTH CENTRAL ARKANSAS

CITY           SKY/WX    TMP DP  RH WIND       PRES   REMARKS
BATESVILLE     CLOUDY    49  47  93 W5        29.98F
FLIPPIN        CLOUDY    50  47  89 CALM      30.01S
MTN HOME       CLOUDY    51  49  92 VRB3      29.99R
$$

ARZ040-041-231200-
WEST CENTRAL ARKANSAS

CITY           SKY/WX    TMP DP  RH WIND       PRES   REMARKS
MENA           CLEAR     48  46  93 W3        30.08S
MOUNT IDA      CLEAR     41  39  93 CALM      30.03
$$

ARZ009-017-025-026-028-231200-
NORTHEAST ARKANSAS

CITY           SKY/WX    TMP DP  RH WIND       PRES   REMARKS
JONESBORO      LGT RAIN  52  52 100 CALM      29.96F
NEWPORT        PTCLDY    51  48  89 W3        29.97F
WALNUT RIDGE   CLOUDY    52  50  93 SW6       29.97S
BLYTHEVILLE    CLOUDY    54  53  97 NW7       29.95R
$$

ARZ022-023-033-042-044-231200-
CENTRAL ARKANSAS

CITY           SKY/WX    TMP DP  RH WIND       PRES   REMARKS
LITTLE ROCK    CLEAR     46  45  96 W6        30.04R
N LITTLE ROCK    N/A     48  45  90 W3        30.05R
JACKSONVILLE   CLEAR     47  46  96 W7        30.02R
SEARCY         CLEAR     48  48 100 CALM      30.01S
HOT SPRINGS    CLEAR     45  45 100 CALM      30.06R
RUSSELLVILLE   CLEAR     42  42 100 CALM      30.04S FOG
CLINTON        FAIR      48  46  93 CALM      30.01S
$$

ARZ036-231200-
EAST ARKANSAS

CITY           SKY/WX    TMP DP  RH WIND       PRES   REMARKS
WEST MEMPHIS   CLOUDY    54  52  93 VRB3      29.97R
$$

ARZ050-053-066-070-073-231200-
SOUTHWEST ARKANSAS

CITY           SKY/WX    TMP DP  RH WIND       PRES   REMARKS
ARKADELPHIA    FAIR      42  41  96 CALM      30.07R
CAMDEN         CLEAR     45  41  87 CALM      30.07R
TEXARKANA      CLEAR     45  45 100 SW6       30.09S
EL DORADO      CLEAR     46  46 100 W3        30.08S
DE QUEEN       CLEAR     39  39 100 CALM      30.08S
$$

ARZ056-057-069-231200-
SOUTHEAST ARKANSAS

CITY           SKY/WX    TMP DP  RH WIND       PRES   REMARKS
PINE BLUFF     CLEAR     48  44  86 W7        30.04S
STUTTGART      CLEAR     50  47  89 W7        30.03R
MONTICELLO     CLEAR     49  46  90 W5        30.05R

$$






USA.gov is the U.S. government's official web portal to all federal, state and local government web resources and services.